DW0920 Weather Reports


time (UTC)temp
F
wind
direction
speed
knots
gust
knots
rain 1hr
in
rain 24hr
in
rain mn
in
humidity
%
barometer
mb
20260505222550 54 262 4.3 19.1 0.00 0.00 0.00 87 1014.1
20260505221524 54 261 4.3 17.4 0.00 0.00 0.00 86 1013.8
20260505220519 55 265 3.5 17.4 0.00 0.00 0.00 85 1013.9
20260505215500 55 297 4.3 17.4 0.00 0.00 0.00 84 1013.9
20260505214451 55 163 3.5 17.4 0.00 0.00 0.00 83 1013.8
20260505213447 56 200 4.3 12.2 0.00 0.00 0.00 82 1013.7
20260505212445 57 191 4.3 13.0 0.00 0.00 0.00 81 1013.7
20260505211427 57 304 3.5 17.4 0.00 0.00 0.00 79 1013.4
20260505210431 57 175 5.2 17.4 0.00 0.00 0.00 78 1013.6
20260505204302 59 173 4.3 14.8 0.00 0.00 0.00 73 1013.8
20260505203317 60 207 2.6 10.4 0.00 0.00 0.00 73 1013.8
20260505202327 61 207 2.6 10.4 0.00 0.00 0.00 73 1013.9
20260505200135 62 232 3.5 12.2 0.00 0.00 0.00 70 1013.9
20260505195131 62 235 3.5 16.5 0.00 0.00 0.00 69 1013.9
20260505194147 62 216 4.3 16.5 0.00 0.00 0.00 68 1013.8
20260505193146 64 168 3.5 12.2 0.00 0.00 0.00 67 1013.9
20260505192146 64 203 3.5 12.2 0.00 0.00 0.00 67 1013.9
20260505191131 64 205 2.6 10.4 0.00 0.00 0.00 67 1014.1
20260505190155 64 311 3.5 12.2 0.00 0.00 0.00 66 1014.1
20260505185200 64 205 5.2 12.2 0.00 0.00 0.00 64 1014.1
20260505184145 65 190 4.3 10.4 0.00 0.00 0.00 62 1013.9
20260505181953 64 202 3.5 13.0 0.00 0.00 0.00 63 1014.2
20260505180949 63 274 2.6 13.0 0.00 0.00 0.00 64 1014.3
20260505175950 63 285 2.6 10.4 0.00 0.00 0.00 62 1014.3
20260505174944 63 253 3.5 13.0 0.00 0.00 0.00 62 1014.3
20260505173921 63 150 3.5 13.0 0.00 0.00 0.00 63 1014.3
20260505172913 63 277 3.5 9.6 0.00 0.00 0.00 61 1014.4